Regional Weather Roundup
Issued by NWS

Home | Current Version | Previous Version | Text Only | Print | Product List | Glossary On
Versions: 1 2 3 4 5 6 7 8 9 10 11 12 13 14 15 16 17 18 19 20 21 22 23 24 25 26 27 28 29 30 31 32 33 34 35 36 37 38 39 40 41 42 43 44 45 46 47 48 49 50
000
ASUS44 KFWD 201415
RWRTX
NORTH TEXAS HOURLY WEATHER ROUNDUP
NATIONAL WEATHER SERVICE FORT WORTH TX
900 AM CDT FRI OCT 20 2017

NOTE: "FAIR" INDICATES FEW OR NO CLOUDS BELOW 12,000 FEET WITH NO
SIGNIFICANT WEATHER AND/OR OBSTRUCTIONS TO VISIBILITY.

TXZ118-119-201500-
DALLAS/FORT WORTH METROPLEX

CITY           SKY/WX    TMP DP  RH WIND       PRES   REMARKS
DFW AIRPORT    CLOUDY    67  59  75 CALM      30.08R
DALLAS LOVE    CLOUDY    68  58  70 SE9       30.10R
FTW MEACHAM    CLOUDY    67  59  75 SE9       30.10R
DAL-EXECUTIVE  CLOUDY    67  59  75 SE6       30.10R
FTW-ALLIANCE   CLOUDY    62  60  93 CALM      30.10R
FTW-NAS-JRB    CLOUDY    65  58  78 S5        30.11R
FTW-SPINKS     PTSUNNY   63  59  88 CALM      30.11R
ARLINGTON      PTSUNNY   66  60  81 SE9       30.09R
GRAND PRAIRIE  SUNNY     66  57  72 SE5       30.11R
ADDISON        MOSUNNY   68  57  68 SE7       30.11R
MESQUITE       MOSUNNY   64  57  77 E6        30.11R
LANCASTER      PTSUNNY   63  57  79 CALM      30.11R
$$

TXZ091>094-102>105-117-120-121-131>134-201500-
NORTH CENTRAL TEXAS

CITY           SKY/WX    TMP DP  RH WIND       PRES   REMARKS
SHRMAN/DENISON CLOUDY    63  57  81 SE10      30.13R
GAINESVILLE    CLOUDY    60  56  89 E7        30.12S
BOWIE          CLOUDY    62  58  84 SE6       30.08S
BRIDGEPORT     CLOUDY    63  59  88 SE3       30.11R
DECATUR        CLOUDY    65  58  77 SE8       30.09R
DENTON         CLOUDY    63  59  87 SE3       30.10R
MCKINNEY       PTSUNNY   65  59  81 SE3       30.10R
BONHAM         CLOUDY    60  56  86 CALM      30.12S
GREENVILLE     CLOUDY    64  59  82 CALM      30.12R
ROCKWALL       MOSUNNY   66  58  74 SE5       30.11R
TERRELL        MOSUNNY   66  57  72 SE5       30.11R
WAXAHACHIE     PTSUNNY   64  60  85 CALM      30.11S
CLEBURNE       CLOUDY    64  61  88 SE12      30.11R
GRANBURY       CLOUDY    62  59  89 CALM      30.13R
$$

TXZ083>090-098>101-113>116-127>130-139>142-154-155-201500-
WESTERN NORTH TEXAS

CITY           SKY/WX    TMP DP  RH WIND       PRES   REMARKS
WICHITA FALLS  MOSUNNY   65  59  81 SE16      30.03S
WF-KICKAPOO    SUNNY     65  59  82 SE10      30.06R
VERNON         SUNNY     65  55  68 S17       29.99F
ABILENE        MOSUNNY   64  62  93 S12       30.03S
ABILENE-DYESS  PTSUNNY   66  62  85 SE16      30.01F
GRAHAM         SUNNY     66  59  77 SE6       30.05S
BRECKENRIDGE   SUNNY     68  61  78 SE8       30.05S HAZE
CISCO          PTSUNNY   64  63  94 S12       30.07F
EASTLAND       SUNNY     65  62  89 S8        30.08R
RANGER         CLOUDY    63  59  87 S7        30.10R
MINERAL WELLS  CLOUDY    63  59  87 SE8       30.08F
STEPHENVILLE   CLOUDY    62  59  90 SE7       30.13R
COMANCHE       CLOUDY    64  64  99 S6        30.09F
BROWNWOOD      PTSUNNY   66  61  82 SE5       30.10R
COLEMAN        SUNNY     65  60  82 SE7       30.08S
$$

TXZ143>147-156>162-174-175-201500-
CENTRAL TEXAS

CITY           SKY/WX    TMP DP  RH WIND       PRES   REMARKS
WACO           CLOUDY    66  59  78 E3        30.07F
WACO-TSTC      PTSUNNY   68  59  73 CALM      30.08R
WACO-MCGREGOR  CLOUDY    65  59  81 CALM      30.08S
HILLSBORO      MOSUNNY   66  59  78 E9        30.09S
CORSICANA      CLOUDY    69  61  75 SE6       30.10S
MEXIA          CLOUDY    66  59  77 E3        30.08R
HEARNE         CLOUDY    68  64  87 CALM      30.08R
CAMERON        CLOUDY    68  61  79 CALM      30.06F
TEMPLE         CLOUDY    66  61  82 E5        30.08R
KILLEEN        CLOUDY    64  61  89 CALM      30.07R
KILLEEN-SKYLRK CLOUDY    64  61  90 CALM      30.08R
FORT HOOD      CLOUDY    63  60  90 E6        30.05R
GATESVILLE     CLOUDY    63  61  94 CALM      30.10R
HAMILTON       CLOUDY    62  62 100 W3        30.13R
LAMPASAS       CLOUDY    64  62  94 CALM      30.08R
$$

TXZ095>097-106>112-122>126-135>138-148>153-164>167-201500-
EAST TEXAS

CITY           SKY/WX    TMP DP  RH WIND       PRES   REMARKS
PARIS          PTSUNNY   61  58  90 E9        30.14R
SULPHUR SPRNGS CLOUDY    66  60  81 SE7       30.14S
MOUNT PLEASANT CLOUDY    60  59  94 E3        30.15R
GILMER         CLOUDY    60  58  91 CALM      30.13R
MINEOLA        CLOUDY    64  61  88 SE5       30.12S
TYLER          MOSUNNY   64  62  93 N3        30.12R
LONGVIEW       PTSUNNY   62  60  93 E3        30.13R
MARSHALL       CLOUDY    63  58  85 CALM      30.15R
ATHENS         CLOUDY    64  61  88 CALM      30.09S
PALESTINE      CLOUDY    66  63  89 E5        30.09F
JACKSONVILLE   PTSUNNY   66  61  84 E5        30.13S
HENDERSON      CLOUDY    64  60  85 CALM      30.13R
CENTER         PTSUNNY   68  65  92 E8        30.14R
NACOGDOCHES    CLOUDY    67  63  87 SE10      30.11R
LUFKIN         CLOUDY    66  64  93 SE12      30.09R
$$

SUPPLEMENTAL OBSERVATIONS (NWS FORT WORTH AREA)

CITY           SKY/WX    TMP DP  RH WIND       PRES   REMARKS
CADDO GRASSLND   N/A     63  55  77 SE3         N/A
PAT MAYSE LAKE   N/A     61  59  94 E5          N/A
GREENVILLE       N/A     64  57  77 E5          N/A
CEDAR HILL       N/A     66  55  68 SE5G14      N/A
LBJ GRASSLAND    N/A     66  59  77 SE6         N/A
POSSUM KINGDOM   N/A     64  57  77 SE7         N/A
GRANBURY         N/A     63  59  88 W2          N/A
MCGREGOR         N/A     64  59  82 E5          N/A
TEMPLE           N/A     66  57  72 E7          N/A
$$

SUPPLEMENTAL OBSERVATIONS (NWS NORMAN AREA)

CITY           SKY/WX    TMP DP  RH WIND       PRES   REMARKS
GOODLETT         N/A     65  56  73 SE15      29.96S
ODELL            N/A     66  59  78 SE17G25   29.98F
CROWELL          N/A     66  59  76 SE15      29.98S
KNOX CITY        N/A     68  58  72 SE18      29.98F
SEYMOUR          N/A     66  58  75 SE14G21   29.99F
MILLERS CREEK    N/A     66  59  77 SE13        N/A
$$

SUPPLEMENTAL OBSERVATIONS (NWS SAN ANGELO AREA)

CITY           SKY/WX    TMP DP  RH WIND       PRES   REMARKS
WEINERT          N/A     67  60  76 SE14G21   30.00S
HASKELL          N/A     65  58  76 SE12      30.00F
THROCKMORTON     N/A     66  61  83 SE12      30.04S
STAMFORD         N/A     67  61  82 S16       30.01F
CLYDE            N/A     64  61  90 S13       30.06S
HAMBY            N/A     66  59  77 S16         N/A
IVIE RESERVOIR   N/A     66  61  82 SE16        N/A
COLORADO BEND    N/A     64  61  88 E1          N/A
$$

SUPPLEMENTAL OBSERVATIONS (NWS SHREVEPORT AREA)

CITY           SKY/WX    TMP DP  RH WIND       PRES   REMARKS
CLARKSVILLE      N/A     63  55  77 E3          N/A
TEXARKANA        N/A     59  57  94 CALM        N/A
LINDEN           N/A     61  57  88 E2          N/A
CADDO LAKE       N/A     57  55  94 CALM        N/A
GILMER           N/A     63  59  88 E2          N/A
HENDERSON        N/A     64  59  82 NE3         N/A
LUFKIN           N/A     68  63  83 MISG        N/A
N SABINE NF      N/A     64  63  94 MISG        N/A
S SABINE NF      N/A     68  64  88 SE2         N/A
$$

SUPPLEMENTAL OBSERVATIONS ARE A COLLECTION OF AUTOMATED INSTRUMENTS
THAT ARE MAINTAINED BY A VARIETY OF FEDERAL AND STATE AGENCIES.
CERTAIN ELEMENTS...SUCH AS HUMIDITY VALUES AND SUSTAINED WIND
SPEEDS...MAY BE APPROXIMATED.





USA.gov is the U.S. government's official web portal to all federal, state and local government web resources and services.